Dewpoint
52 52 51 51 51 50 48 47 47 46 46 46 45 46 46 46 47 46 46 47 47 46 46 46 46 45 46 46 45 45 46 46 46 44 44 45 44 42 42 41 41 41
52 52 52 50 50 49 48 47 46 45 45 45 45 46 46 46 46 45 45 44 45 45 45 45 46 45 45 45 45 44 44 44 45 46 43 43 43 42 41 41 40 40
50 50 49 48 47 47 47 47 46 46 46 46 46 46 46 47 46 45 45 44 44 44 45 45 45 45 44 44 44 43 43 43 43 43 44 42 42 41 41 40 40 39
49 48 48 47 47 46 46 46 46 46 46 45 45 46 47 47 45 45 45 46 43 43 44 44 45 45 44 44 44 43 43 43 43 43 42 43 43 41 40 40 41 39
49 49 48 47 47 47 46 45 45 45 45 46 46 47 45 42 42 42 42 42 42 41 42 42 43 44 45 44 43 43 44 43 43 42 41 41 42 41 41 40 39 39
48 47 47 46 46 45 45 44 45 45 44 44 44 44 42 42 41 40 40 40 40 40 41 41 41 42 43 44 44 43 43 43 42 41 40 40 40 41 40 39 39 39
46 45 45 45 45 45 44 44 45 45 44 44 43 42 41 40 39 39 39 39 39 41 40 40 41 41 42 43 43 43 43 42 42 40 39 40 41 40 40 39 40 39
45 45 45 45 44 44 44 44 44 44 43 42 41 42 40 39 38 39 38 39 39 39 39 40 40 40 41 42 42 43 43 43 41 40 39 39 39 39 39 40 38 37
44 44 44 43 43 43 43 43 43 43 43 41 40 40 40 38 38 38 38 38 38 39 39 39 39 39 40 40 40 41 42 42 41 40 38 38 39 39 39 38 38 39
44 43 43 42 42 42 41 42 42 42 42 40 39 39 38 39 38 38 38 38 37 37 37 37 37 38 38 39 39 40 41 42 41 40 39 39 39 39 38 38 37 36
43 43 42 42 42 42 42 42 42 43 42 40 39 38 38 38 39 38 37 37 37 36 36 36 37 37 37 37 38 39 40 41 41 39 39 38 39 40 43 38 39 37
43 42 42 41 41 41 41 41 42 41 40 40 38 38 38 38 38 38 38 37 37 37 36 36 36 36 36 37 37 38 39 41 41 40 40 38 38 38 39 39 38 37
42 42 42 42 41 41 41 41 41 40 40 39 39 38 37 37 37 37 38 37 36 36 36 36 36 36 36 36 36 37 38 40 40 41 39 40 39 38 37 37 38 38
42 42 41 41 41 41 41 41 41 41 41 40 39 38 38 37 37 36 37 36 36 36 37 39 36 36 36 36 37 37 38 38 39 41 40 38 39 38 37 37 38 39
42 41 42 42 41 40 41 41 42 42 41 40 39 39 39 37 36 36 35 34 34 34 35 36 37 37 38 37 37 37 36 38 38 40 40 38 38 38 36 36 36 38
41 41 40 40 40 40 40 41 41 41 40 38 37 37 37 37 36 36 35 34 33 33 34 35 36 37 39 38 39 38 37 37 38 39 40 38 38 37 36 37 35 36
40 40 39 39 39 40 41 41 41 39 37 36 36 35 35 36 33 33 33 33 33 33 33 35 36 37 38 37 37 39 39 37 37 39 40 38 38 37 35 37 37 36
39 39 39 39 40 40 40 40 40 39 38 37 35 34 35 34 33 33 33 32 33 33 34 35 35 38 37 37 38 38 41 39 38 39 39 37 35 36 36 37 35 36
38 38 39 39 39 40 40 40 40 40 39 37 35 35 34 33 33 33 32 33 32 32 33 34 34 38 37 37 37 37 38 38 37 38 38 37 36 36 36 36 36 38
38 38 38 39 39 40 40 41 41 41 40 39 38 36 34 33 33 32 33 32 32 32 33 33 34 37 36 37 37 37 37 37 35 36 36 36 36 36 36 36 35 35
37 37 38 38 39 39 40 40 40 40 40 40 37 36 35 34 33 32 33 35 33 32 32 33 34 36 36 36 37 37 37 36 35 36 35 35 35 36 36 36 35 36
37 37 38 38 38 39 39 39 39 39 40 40 39 38 37 36 34 34 32 31 32 31 31 30 32 36 36 36 36 36 37 36 34 34 34 35 35 35 35 35 36 35
36 37 37 37 38 38 38 38 39 39 39 40 38 38 38 36 34 33 33 32 33 32 30 29 31 34 35 36 36 36 36 34 33 33 33 33 33 34 35 35 35 38
36 36 37 37 37 38 38 38 38 38 38 39 38 37 37 36 36 34 33 33 32 31 30 30 30 34 35 36 36 36 37 33 33 32 31 32 33 33 34 33 34 40
35 36 36 37 37 37 37 37 37 37 38 37 36 36 37 37 38 35 34 33 33 32 38 33 31 33 35 35 35 36 36 33 33 31 31 30 32 34 33 33 33 36
35 36 37 37 37 37 37 37 37 37 37 36 35 35 36 36 37 36 35 35 36 36 38 33 32 31 35 35 36 36 37 34 33 31 31 30 31 34 33 32 33 32